CPA912 RPLL-VHHH

Flight info

Callsign CPA912
Flight time N/A
Altitude 38000
Route RDVXCAB/06 CAB A461 NOMAN V532 BETTY
Aircraft A333/H-SDE3GHIJ2J3J5M1RVWXY/LB2D1

Departure

Time 2026-05-04 13:51
Airport Ninoy Aquino International Airport (RPLL)

Arrival

Time N/A
Airport Hong Kong International Airport (VHHH)
Time Latitude Longitude Altitude Speed Heading
2026-05-04 13:10 14.51577 121.01620 45 ft 0 kts 45°
2026-05-04 13:13 14.51573 121.01616 62 ft 0 kts 52°
2026-05-04 13:13 14.51572 121.01614 62 ft 0 kts 48°
2026-05-04 13:14 14.51571 121.01612 62 ft 0 kts 48°
2026-05-04 13:31 14.51560 121.01600 62 ft 3 kts 68°
2026-05-04 13:31 14.51553 121.01582 62 ft 3 kts 74°
2026-05-04 13:31 14.51552 121.01564 62 ft 2 kts 105°
2026-05-04 13:32 14.51557 121.01546 62 ft 1 kts 133°
2026-05-04 13:33 14.51560 121.01544 62 ft 3 kts 125°
2026-05-04 13:33 14.51569 121.01528 63 ft 3 kts 95°
2026-05-04 13:33 14.51570 121.01511 62 ft 2 kts 90°
2026-05-04 13:34 14.51570 121.01493 64 ft 2 kts 106°
2026-05-04 13:34 14.51577 121.01477 62 ft 3 kts 126°
2026-05-04 13:34 14.51578 121.01474 62 ft 0 kts 136°
2026-05-04 13:38 14.51567 121.01482 62 ft 5 kts 144°
2026-05-04 13:39 14.51535 121.01509 72 ft 7 kts 139°
2026-05-04 13:39 14.51497 121.01546 64 ft 8 kts 137°
2026-05-04 13:39 14.51452 121.01591 64 ft 10 kts 135°
2026-05-04 13:39 14.51401 121.01644 62 ft 11 kts 134°
2026-05-04 13:40 14.51344 121.01704 64 ft 12 kts 135°
2026-05-04 13:40 14.51282 121.01769 65 ft 13 kts 134°
2026-05-04 13:40 14.51214 121.01839 65 ft 14 kts 135°
2026-05-04 13:40 14.51144 121.01913 62 ft 15 kts 134°
2026-05-04 13:41 14.51086 121.01970 63 ft 0 kts 146°
2026-05-04 13:41 14.51085 121.01970 63 ft 0 kts 146°
2026-05-04 13:42 14.51079 121.01971 64 ft 2 kts 163°
2026-05-04 13:42 14.51049 121.01964 67 ft 6 kts 206°
2026-05-04 13:42 14.50996 121.01905 65 ft 17 kts 236°
2026-05-04 13:42 14.50927 121.01783 63 ft 21 kts 240°
2026-05-04 13:43 14.50853 121.01648 62 ft 22 kts 240°
2026-05-04 13:43 14.50776 121.01509 62 ft 23 kts 240°
2026-05-04 13:43 14.50695 121.01364 65 ft 24 kts 240°
2026-05-04 13:43 14.50611 121.01215 62 ft 24 kts 240°
2026-05-04 13:44 14.50526 121.01061 68 ft 25 kts 240°
2026-05-04 13:44 14.50436 121.00902 66 ft 26 kts 240°
2026-05-04 13:44 14.50344 121.00739 63 ft 27 kts 240°
2026-05-04 13:44 14.50251 121.00566 61 ft 28 kts 241°
2026-05-04 13:45 14.50152 121.00392 61 ft 28 kts 239°
2026-05-04 13:45 14.50059 121.00226 62 ft 26 kts 240°
2026-05-04 13:45 14.49971 121.00066 67 ft 24 kts 240°
2026-05-04 13:45 14.49904 120.99982 63 ft 7 kts 201°
2026-05-04 13:46 14.49897 120.99980 65 ft 0 kts 194°
2026-05-04 13:49 14.49896 120.99980 65 ft 1 kts 194°
2026-05-04 13:49 14.49838 120.99991 67 ft 11 kts 150°
2026-05-04 13:50 14.49819 121.00039 65 ft 8 kts 90°
2026-05-04 13:50 14.49845 121.00115 64 ft 0 kts 61°
2026-05-04 13:50 14.49857 121.00137 62 ft 17 kts 60°
2026-05-04 13:50 14.50048 121.00487 62 ft 92 kts 61°
2026-05-04 13:51 14.50466 121.01234 65 ft 147 kts 60°
2026-05-04 13:51 14.51017 121.02303 273 ft 181 kts 65°
2026-05-04 13:51 14.51587 121.03485 962 ft 185 kts 65°
2026-05-04 13:51 14.52118 121.04714 1762 ft 193 kts 68°
2026-05-04 13:52 14.53026 121.07411 3334 ft 205 kts 75°
2026-05-04 13:52 14.53335 121.08854 4147 ft 207 kts 81°
2026-05-04 13:52 14.53489 121.10340 4962 ft 210 kts 85°
2026-05-04 13:53 14.53887 121.11848 5409 ft 232 kts 65°
2026-05-04 13:53 14.54734 121.13358 5756 ft 255 kts 49°
2026-05-04 13:53 14.56244 121.14356 6348 ft 266 kts 19°
2026-05-04 13:54 14.60000 121.14559 7819 ft 277 kts 356°
2026-05-04 13:54 14.61920 121.14256 8607 ft 281 kts 353°
2026-05-04 13:54 14.65815 121.13506 10130 ft 289 kts 353°
2026-05-04 13:55 14.67861 121.13149 10472 ft 308 kts 354°
2026-05-04 13:55 14.72361 121.12486 11092 ft 343 kts 355°
2026-05-04 13:55 14.74728 121.12170 11612 ft 351 kts 355°
2026-05-04 13:56 14.77166 121.11851 12217 ft 356 kts 355°
2026-05-04 13:56 14.79642 121.11527 12856 ft 361 kts 355°
2026-05-04 13:56 14.84697 121.10865 14053 ft 371 kts 354°
2026-05-04 13:57 14.87267 121.10526 14626 ft 374 kts 354°
2026-05-04 13:57 14.89860 121.10182 15217 ft 377 kts 354°
2026-05-04 13:58 14.97744 121.09138 17008 ft 385 kts 353°
2026-05-04 13:58 15.03067 121.08431 18146 ft 392 kts 353°
2026-05-04 13:58 15.05781 121.08071 18635 ft 395 kts 353°
2026-05-04 13:59 15.08523 121.07707 19110 ft 398 kts 353°
2026-05-04 13:59 15.11283 121.07341 19562 ft 402 kts 353°
2026-05-04 13:59 15.16868 121.06600 20500 ft 408 kts 353°
2026-05-04 14:00 15.19699 121.06225 20962 ft 411 kts 353°
2026-05-04 14:00 15.25419 121.05465 21805 ft 417 kts 353°
2026-05-04 14:00 15.28303 121.05082 21942 ft 418 kts 353°
2026-05-04 14:01 15.31158 121.04703 21952 ft 419 kts 353°
2026-05-04 14:01 15.34089 121.04313 21948 ft 419 kts 353°
2026-05-04 14:01 15.39840 121.03549 21950 ft 419 kts 353°
2026-05-04 14:02 15.42735 121.03164 21950 ft 419 kts 353°
2026-05-04 14:02 15.45625 121.02744 21952 ft 419 kts 349°
2026-05-04 14:02 15.48445 121.01983 21952 ft 419 kts 340°
2026-05-04 14:02 15.51140 121.00847 21953 ft 419 kts 336°
2026-05-04 14:03 15.53784 120.99569 21955 ft 419 kts 334°
2026-05-04 14:03 15.56387 120.98214 21955 ft 419 kts 332°
2026-05-04 14:03 15.58977 120.96820 21962 ft 419 kts 332°
2026-05-04 14:03 15.61558 120.95417 21953 ft 419 kts 332°
2026-05-04 14:04 15.66683 120.92642 21949 ft 418 kts 332°
2026-05-04 14:04 15.69264 120.91257 21950 ft 418 kts 332°
2026-05-04 14:04 15.71851 120.89875 21949 ft 418 kts 332°
2026-05-04 14:05 15.77027 120.87118 21960 ft 418 kts 333°
2026-05-04 14:05 15.79613 120.85742 21960 ft 418 kts 333°
2026-05-04 14:05 15.82197 120.84366 21961 ft 418 kts 333°
2026-05-04 14:06 15.84781 120.82990 21963 ft 418 kts 333°
2026-05-04 14:06 15.87371 120.81610 21971 ft 417 kts 333°
2026-05-04 14:06 15.89916 120.80252 21971 ft 417 kts 333°
2026-05-04 14:06 15.92497 120.78876 21971 ft 417 kts 333°
2026-05-04 14:07 15.95080 120.77497 21972 ft 417 kts 333°
2026-05-04 14:07 15.97662 120.76119 21971 ft 417 kts 332°
2026-05-04 14:07 16.00246 120.74739 21988 ft 418 kts 332°
2026-05-04 14:07 16.02833 120.73358 21981 ft 418 kts 332°
2026-05-04 14:08 16.05423 120.71974 21978 ft 418 kts 332°
2026-05-04 14:08 16.08010 120.70591 21981 ft 418 kts 332°
2026-05-04 14:08 16.10599 120.69207 21978 ft 419 kts 332°
2026-05-04 14:08 16.13157 120.67839 21980 ft 419 kts 332°
2026-05-04 14:09 16.18350 120.65060 21984 ft 420 kts 332°
2026-05-04 14:09 16.20947 120.63670 21983 ft 419 kts 332°
2026-05-04 14:10 16.26120 120.60901 21985 ft 418 kts 332°
2026-05-04 14:10 16.28710 120.59514 21984 ft 419 kts 332°
2026-05-04 14:10 16.31301 120.58124 22132 ft 421 kts 332°
2026-05-04 14:10 16.33908 120.56727 22698 ft 421 kts 332°
2026-05-04 14:11 16.36515 120.55328 23208 ft 422 kts 332°
2026-05-04 14:11 16.41745 120.52524 24006 ft 429 kts 332°
2026-05-04 14:11 16.44404 120.51097 24379 ft 431 kts 332°
2026-05-04 14:12 16.47077 120.49662 24758 ft 434 kts 332°
2026-05-04 14:12 16.49765 120.48218 25164 ft 435 kts 332°